[[{"header":{"parameterUnit":"m.s-1","parameterCategory":1,"la1":30.2991,"la2":30.254,"lo1":-89.0895,"lo2":-89.0444,"dy":0.0017,"dx":0.0017,"nx":28,"ny":28,"refTime":"2025-03-25T21:00:00:Z","depth":0,"parameterNumber":2,"parameterNumberName":"U-component_of_WINDS"},"data":[0,0,0,0,0,0,0,0,0,0,0,0,0,0,0,0,0,0,0,0,0,0,0,0,0,0,0,0,0,0,0,0,0,0,0,0,0,0,0,0,0,0,0,0,0,0,0,0,0,0,0,0,0,0,0,0,0,0,0.7349,0.7351,0,0.7458,0.7459,0.746,0.7471,0.747,0.7469,0.7468,0.7582,0.7586,0.759,0,0,0,0,0,0,0,0,0,0,0,0,0,0.7154,0.7158,0.7349,0.7351,0.7352,0.7457,0.7459,0.746,0.7471,0.747,0.7468,0.7467,0.7581,0.7586,0.7591,0,0,0,0,0,0,0,0,0,0,0,0,0,0.7248,0.7159,0.7349,0.737,0.7373,0.7457,0.7459,0.7461,0.7471,0.747,0.7468,0.7466,0.7579,0.7585,0.7591,0.7663,0,0,0.761,0.7613,0,0,0,0,0,0,0,0,0.7243,0.7256,0.7366,0.7369,0.7372,0.7449,0.7432,0.7529,0.7472,0.7434,0.7468,0.7466,0.7539,0.7549,0.7573,0.7669,0.7673,0.7611,0.7614,0.7617,0.7619,0,0,0,0,0,0,0,0.7237,0.7251,0.7392,0.7367,0.7371,0.7375,0.7386,0.7451,0.7495,0.7437,0.7438,0.7451,0.7541,0.7567,0.7576,0.7675,0.761,0.7616,0.762,0.7622,0.7835,0.7837,0,0,0,0,0,0,0.7226,0.7246,0.7389,0.7396,0.7302,0.738,0.7393,0.7426,0.7494,0.7503,0.7452,0.7451,0.7557,0.7568,0.758,0.7668,0.7617,0.7623,0.7626,0.7833,0.7835,0.7838,0,0,0,0,0,0,0.7222,0.7238,0.7385,0.7321,0.734,0.7385,0.7422,0.7429,0.7455,0.7506,0.7514,0.747,0.7556,0.7571,0.7642,0.7673,0.7625,0.7631,0.7831,0.7834,0.7836,0.7846,0,0,0,0,0,0,0.7216,0.7237,0.7264,0.7321,0.7343,0.7444,0.7424,0.7432,0.7465,0.7465,0.7525,0.7533,0.7556,0.7633,0.7648,0.768,0.7636,0.7828,0.7832,0.7836,0.7843,0.7849,0.7854,0,0,0,0,0,0.7209,0.7263,0.7265,0.7283,0.7378,0.7446,0.7458,0.7483,0.7468,0.7496,0.7528,0.7531,0.7666,0.764,0.7657,0.7692,0.7826,0.7831,0.7835,0.7841,0.7848,0.7854,0,0,0,0,0,0,0.721,0.7271,0.7274,0.7349,0.7392,0.7448,0.7484,0.7489,0.7539,0.7536,0.7565,0.7579,0.7648,0.7677,0.7647,0.7765,0.7745,0.7753,0.7743,0.7751,0.7756,0.7748,0.7641,0,0,0,0,0,0.7219,0.7268,0.7319,0.738,0.7401,0.7439,0.7469,0.7484,0.753,0.7549,0.7587,0.7632,0.7685,0.7719,0.7771,0.7847,0.7861,0.7879,0.7885,0.7889,0.7896,0.7938,0.7947,0.7852,0.7852,0.7852,0,0,0.7238,0.7277,0.7307,0.7381,0.7416,0.7467,0.7454,0.7509,0.7547,0.7558,0.7627,0.7656,0.7709,0.7783,0.7817,0.7809,0.7925,0.7894,0.7897,0.7902,0.7944,0.7953,0.7961,0.7855,0.7854,0.7854,0,0,0.7298,0.7333,0.7387,0.7422,0.7475,0.7499,0.7512,0.7567,0.7586,0.7656,0.7664,0.7711,0.7801,0.7838,0.7869,0.7942,0.7947,0.7958,0.7987,0.8028,0.8035,0.8042,0.8068,0.8078,0.7965,0.7965,0.7965,0,0.7316,0.7392,0.7415,0.7469,0.7501,0.7512,0.7567,0.76,0.7668,0.7691,0.768,0.7792,0.7829,0.7912,0.7929,0.7954,0.797,0.7952,0.8032,0.8039,0.8046,0.8071,0.8081,0.7966,0.7966,0.7966,0.7966,0,0.741,0.7463,0.7501,0.7564,0.7601,0.7656,0.7687,0.7722,0.7733,0.7759,0.7829,0.7873,0.7933,0.7954,0.7966,0.8038,0.8031,0.8026,0.8007,0.8055,0.808,0.809,0.7967,0.7967,0.7967,0.7967,0,0,0.7476,0.755,0.7564,0.7592,0.7651,0.7692,0.7747,0.7805,0.7834,0.788,0.7927,0.8003,0.7998,0.8033,0.8049,0.8085,0.814,0.8075,0.8077,0.8086,0.8223,0.8227,0.8238,0.8143,0.8145,0.8147,0.8218,0,0.7544,0.7641,0.7663,0.7747,0.7796,0.7806,0.7854,0.7895,0.792,0.7966,0.7995,0.8047,0.8037,0.8058,0.8094,0.8126,0.8168,0.8121,0.8189,0.8191,0.8175,0.825,0.8255,0.8321,0.8228,0.823,0.8231,0,0.7636,0.7682,0.7771,0.7822,0.7843,0.7886,0.794,0.7984,0.8031,0.8047,0.8085,0.8097,0.8155,0.8132,0.8213,0.8181,0.821,0.8229,0.8233,0.824,0.8214,0.8261,0.8342,0.8352,0.8246,0.8245,0.8244,0,0.7675,0.776,0.7823,0.7848,0.7909,0.7939,0.7966,0.8011,0.8044,0.8092,0.8113,0.8167,0.8197,0.8239,0.8266,0.8247,0.8345,0.8324,0.836,0.836,0.8382,0.838,0.8469,0.8399,0.8399,0.8399,0.8399,0,0.7748,0.7802,0.7842,0.7881,0.7942,0.7966,0.8026,0.8053,0.8093,0.8139,0.8151,0.8193,0.8226,0.8273,0.8294,0.8358,0.8371,0.8386,0.8392,0.8386,0.8384,0.8406,0.8402,0.8401,0.8401,0.84,0.84,0,0.7803,0.7831,0.7902,0.7953,0.7968,0.801,0.8055,0.8094,0.8118,0.8176,0.8191,0.823,0.8286,0.8316,0.8387,0.8401,0.8473,0.8476,0.8457,0.8459,0.8493,0.849,0.86,0.8616,0.8535,0.8536,0.8536,0,0.7848,0.789,0.7945,0.7976,0.8003,0.8052,0.8086,0.8111,0.8146,0.8202,0.8234,0.829,0.8337,0.8426,0.8462,0.8516,0.852,0.8555,0.8528,0.8521,0.8521,0.8518,0.8523,0.856,0.856,0.8561,0.8561,0,0.7925,0.7937,0.7984,0.8036,0.8075,0.8117,0.8159,0.8184,0.8216,0.8254,0.8311,0.8347,0.8418,0.8474,0.853,0.8559,0.8566,0.8569,0.858,0.8575,0.8563,0.857,0.847,0.8567,0.8566,0.8566,0.8566,0.8565,0.7977,0.8014,0.8059,0.8111,0.8145,0.8183,0.8222,0.8251,0.8298,0.8357,0.837,0.843,0.8476,0.8552,0.8582,0.863,0.8623,0.864,0.8644,0.8648,0.8649,0.8554,0.864,0.864,0.864,0.864,0.864,0,0.8056,0.8084,0.8132,0.8189,0.823,0.8231,0.8277,0.8311,0.8364,0.8405,0.845,0.8515,0.8569,0.8608,0.8664,0.8694,0.8699,0.8708,0.8706,0.8713,0.8652,0.8637,0.8703,0.8703,0.8703,0.8703,0.8703,0.8703,0.8101,0.8164,0.8181,0.8261,0.8289,0.8347,0.8373,0.8409,0.8442,0.8514,0.8558,0.8583,0.8624,0.8682,0.8732,0.8742,0.8762,0.8771,0.8782,0.8724,0.8717,0.8711,0.8697,0.8775,0.8775,0.8839,0.8839,0.884]},{"header":{"parameterUnit":"m.s-1","parameterCategory":1,"la1":30.2991,"la2":30.254,"lo1":-89.0895,"lo2":-89.0444,"dy":0.0017,"dx":0.0017,"nx":28,"ny":28,"refTime":"2025-03-25T21:00:00:Z","depth":0,"parameterNumber":3,"parameterNumberName":"V-component_of_WINDS"},"data":[0,0,0,0,0,0,0,0,0,0,0,0,0,0,0,0,0,0,0,0,0,0,0,0,0,0,0,0,0,0,0,0,0,0,0,0,0,0,0,0,0,0,0,0,0,0,0,0,0,0,0,0,0,0,0,0,0,0,2.3737,2.3737,0,2.3698,2.3697,2.3697,2.362,2.3619,2.3617,2.3616,2.3577,2.3578,2.3578,0,0,0,0,0,0,0,0,0,0,0,0,0,2.3749,2.3749,2.3737,2.3737,2.3736,2.3698,2.3697,2.3697,2.3621,2.3619,2.3617,2.3615,2.3577,2.3578,2.3578,0,0,0,0,0,0,0,0,0,0,0,0,0,2.373,2.3749,2.3737,2.3694,2.3689,2.3698,2.3697,2.3696,2.3621,2.3619,2.3616,2.3614,2.3577,2.3578,2.3578,2.3627,0,0,2.358,2.358,0,0,0,0,0,0,0,0,2.3731,2.373,2.3701,2.3697,2.3692,2.3662,2.3687,2.3673,2.3622,2.3647,2.3616,2.3613,2.3607,2.3605,2.3603,2.3625,2.3623,2.358,2.358,2.358,2.3581,0,0,0,0,0,0,0,2.3733,2.3731,2.3722,2.37,2.3695,2.3677,2.3671,2.3684,2.364,2.3645,2.3639,2.3635,2.3604,2.3602,2.3601,2.3623,2.358,2.358,2.3581,2.3581,2.3682,2.3684,0,0,0,0,0,0,2.374,2.3733,2.3723,2.372,2.3706,2.3678,2.3672,2.3674,2.364,2.3633,2.3637,2.3632,2.3603,2.3601,2.36,2.3654,2.358,2.3581,2.3581,2.368,2.3683,2.3685,0,0,0,0,0,0,2.3741,2.374,2.3724,2.3725,2.3722,2.368,2.3682,2.3674,2.3672,2.3634,2.3626,2.3643,2.3601,2.3599,2.362,2.3652,2.3581,2.3582,2.3677,2.3681,2.3684,2.3763,0,0,0,0,0,0,2.3741,2.3741,2.3758,2.3726,2.3722,2.3746,2.3684,2.3675,2.3673,2.3665,2.3638,2.3631,2.3599,2.362,2.3621,2.3651,2.3582,2.3674,2.3679,2.3683,2.3758,2.3769,2.3779,0,0,0,0,0,2.3742,2.3783,2.3759,2.3759,2.3743,2.3747,2.3745,2.3707,2.3676,2.3693,2.3669,2.3632,2.3648,2.3623,2.3623,2.3654,2.3672,2.3677,2.3682,2.3753,2.3767,2.3779,0,0,0,0,0,0,2.382,2.3778,2.3751,2.3783,2.3769,2.3735,2.3756,2.3723,2.3718,2.3712,2.3665,2.3659,2.3687,2.3673,2.3645,2.3699,2.3654,2.366,2.3708,2.3721,2.3731,2.3734,2.3583,0,0,0,0,0,2.3841,2.3848,2.381,2.3842,2.3836,2.3797,2.3798,2.3769,2.3754,2.3748,2.3725,2.3712,2.3714,2.3716,2.3716,2.3755,2.3748,2.3777,2.3787,2.3796,2.3802,2.3821,2.3834,2.3703,2.3702,2.3702,0,0,2.3885,2.3862,2.3869,2.3857,2.3843,2.3852,2.3793,2.3805,2.381,2.375,2.3768,2.3752,2.3734,2.3764,2.3776,2.3753,2.3836,2.3803,2.381,2.3811,2.3828,2.3841,2.3852,2.3706,2.3705,2.3705,0,0,2.3968,2.3951,2.3976,2.3963,2.3942,2.3916,2.3922,2.3892,2.3878,2.3896,2.3851,2.3858,2.3862,2.3851,2.3846,2.3925,2.3891,2.3927,2.3982,2.4002,2.4012,2.4021,2.405,2.406,2.3932,2.3932,2.3933,0,2.4025,2.4035,2.3992,2.4007,2.4003,2.3947,2.3972,2.3962,2.3943,2.3942,2.3915,2.3919,2.3904,2.3931,2.395,2.3948,2.3953,2.393,2.4014,2.4023,2.403,2.4057,2.4068,2.3937,2.3936,2.3936,2.3935,0,2.4106,2.4114,2.4136,2.4118,2.4117,2.4136,2.4097,2.4101,2.4072,2.4049,2.4068,2.4047,2.4042,2.4046,2.4019,2.4069,2.4055,2.4022,2.3976,2.4048,2.4072,2.4082,2.3943,2.3942,2.394,2.3939,0,0,2.4238,2.4196,2.4205,2.4196,2.4169,2.4175,2.4192,2.4186,2.419,2.4179,2.4192,2.4197,2.4166,2.4161,2.4132,2.4149,2.4213,2.4114,2.4113,2.4133,2.4268,2.4293,2.4306,2.419,2.4192,2.4193,2.4269,0,2.4315,2.4341,2.4304,2.4338,2.4345,2.4293,2.4308,2.4293,2.4272,2.4276,2.4252,2.4256,2.4215,2.4212,2.4226,2.4203,2.424,2.4196,2.4203,2.4203,2.4209,2.4318,2.4345,2.4418,2.4279,2.428,2.4281,0,2.4409,2.4402,2.4438,2.4408,2.441,2.4424,2.4415,2.4419,2.4402,2.4385,2.4379,2.4344,2.4359,2.4314,2.4335,2.4306,2.4306,2.4295,2.4297,2.4296,2.4247,2.4321,2.444,2.4451,2.4296,2.4295,2.4294,0,2.4502,2.4501,2.4522,2.4516,2.4483,2.4494,2.4481,2.4461,2.446,2.4453,2.4452,2.4446,2.4444,2.4441,2.4406,2.4376,2.4431,2.4383,2.4418,2.4419,2.4432,2.4431,2.4553,2.4432,2.4432,2.4431,2.4431,0,2.4593,2.4617,2.4563,2.4577,2.4602,2.4558,2.4585,2.4566,2.4549,2.4558,2.4512,2.4522,2.4475,2.4479,2.4452,2.4473,2.4472,2.446,2.4452,2.4464,2.4466,2.4464,2.4458,2.4434,2.4434,2.4433,2.4433,0,2.4701,2.4666,2.4686,2.4653,2.4645,2.4665,2.4636,2.4647,2.4623,2.4635,2.4635,2.4597,2.46,2.4565,2.4561,2.4543,2.4576,2.456,2.4582,2.4577,2.4614,2.4611,2.4739,2.4754,2.4623,2.4624,2.4626,0,2.4762,2.4779,2.4747,2.4749,2.4738,2.4743,2.4741,2.4699,2.4699,2.4681,2.4694,2.4693,2.469,2.4697,2.4669,2.4666,2.465,2.4694,2.4649,2.466,2.4651,2.465,2.4652,2.4704,2.4706,2.4707,2.4708,0,2.4872,2.4854,2.4853,2.4847,2.4846,2.4839,2.4828,2.4833,2.4787,2.479,2.4792,2.479,2.4785,2.4785,2.4777,2.4763,2.4729,2.4723,2.4731,2.4743,2.4756,2.475,2.4609,2.472,2.4719,2.4718,2.4718,2.4717,2.4958,2.4971,2.4951,2.4951,2.4939,2.4931,2.4939,2.4916,2.4917,2.491,2.4885,2.4891,2.4873,2.4858,2.4848,2.4853,2.4831,2.4843,2.4845,2.4849,2.4856,2.4755,2.4851,2.4851,2.485,2.485,2.485,0,2.5067,2.5051,2.5052,2.5039,2.504,2.5006,2.4993,2.4996,2.5002,2.4988,2.4986,2.4989,2.4988,2.4961,2.4957,2.4966,2.495,2.4966,2.4965,2.4963,2.4876,2.4869,2.4979,2.4979,2.4979,2.4979,2.4979,2.4979,2.5124,2.5144,2.5123,2.5137,2.512,2.5126,2.5122,2.5114,2.5102,2.5107,2.5106,2.5088,2.5068,2.5063,2.5061,2.5053,2.5054,2.5076,2.5062,2.4982,2.4969,2.4957,2.4951,2.5076,2.5076,2.5149,2.515,2.515]}]]